Regional Weather Roundup
Issued by NWS

Home | Current Version | Previous Version | Graphics & Text | Print | Product List | Glossary On
Versions: 1 2 3 4 5 6 7 8 9 10 11 12 13 14 15 16 17 18 19 20 21 22 23 24 25 26 27 28
000
ASUS45 KCYS 221810
RWRWY

WYOMING REGIONAL WEATHER ROUNDUP
NATIONAL WEATHER SERVICE CHEYENNE WY
1200 PM MDT THU JUN 22 2017

NOTE:  "FAIR" INDICATES FEW OR NO CLOUDS BELOW 12,000 FEET
WITH NO SIGNIFICANT WEATHER AND/OR OBSTRUCTIONS TO VISIBILITY.

WYZ001-221900-
YELLOWSTONE NATIONAL PARK

CITY           SKY/WX    TMP DP  RH WIND       PRES   REMARKS
LK YELLOWSTONE   N/A     58  32  37 VRB5      30.20F
6HR MIN TEMP:  35; 6HR MAX TEMP:  58;

W YELLOWSTONE  NOT AVBL

$$
WYZ002>013-054>058-071-098>099-221900-
NORTHERN WYOMING

CITY           SKY/WX    TMP DP  RH WIND       PRES   REMARKS
JACKSON        SUNNY     66  27  22 SW9       30.13S
CODY           FAIR      65  35  33 N8        30.06F
GREYBULL       FAIR      74  27  17 NW16G28   29.98F
6HR MIN TEMP:  62; 6HR MAX TEMP:  75;

WORLAND        FAIR      73  31  21 NW10      29.99F
6HR MIN TEMP:  59; 6HR MAX TEMP:  74;

SHERIDAN       FAIR      70  39  32 N6        30.01S
6HR MIN TEMP:  53; 6HR MAX TEMP:  71;

BUFFALO        FAIR      65  38  36 E5        30.05S
6HR MIN TEMP:  54; 6HR MAX TEMP:  66;

GILLETTE       FAIR      68  36  30 NE10G22   30.01F
6HR MIN TEMP:  53; 6HR MAX TEMP:  69;

NEWCASTLE      FAIR      70  32  24 NW18G26   29.98S

$$
WYZ014>020-022>026-101>103-221900-
CENTRAL WYOMING

CITY           SKY/WX    TMP DP  RH WIND       PRES   REMARKS
BIG PINEY      FAIR      74  32  21 N17G23    30.13F
6HR MIN TEMP:  41; 6HR MAX TEMP:  74;

PINEDALE       FAIR      70  32  24 NW20G29   30.14S
DUBOIS         FAIR      70  23  17 NW9G22    30.10F
LANDER         FAIR      70  36  28 VRB3      30.02F
6HR MIN TEMP:  56; 6HR MAX TEMP:  71;

RIVERTON       FAIR      71  32  23 E5        30.03F
6HR MIN TEMP:  59; 6HR MAX TEMP:  71;

CASPER         FAIR      68  36  30 NE9       30.05F
6HR MIN TEMP:  53; 6HR MAX TEMP:  69;

DOUGLAS        FAIR      70  37  29 NW10G18   30.04F
6HR MIN TEMP:  57; 6HR MAX TEMP:  70;


$$
WYZ021-027>030-104>119-221900-
SOUTHERN WYOMING

CITY           SKY/WX    TMP DP  RH WIND       PRES   REMARKS
EVANSTON       FAIR      73  32  22 SW17G23   30.17S
6HR MIN TEMP:  53; 6HR MAX TEMP:  74;

KEMMERER         N/A     68  34  28 NW17      30.18S
FORT BRIDGER   FAIR      78  27  15 NW17G23   30.18S
ROCK SPRINGS   FAIR      75  29  18 W12G23    30.09F
6HR MIN TEMP:  56; 6HR MAX TEMP:  76;

DIXON          FAIR      81  33  17 NW15G21   30.09S
RAWLINS        FAIR      75  41  29 NE8       30.07F
6HR MIN TEMP:  56; 6HR MAX TEMP:  77;

SARATOGA       FAIR      77  36  22 W12G18    30.09S
LARAMIE        FAIR      77  40  26 NW12G20   30.08S
6HR MIN TEMP:  57; 6HR MAX TEMP:  77;

CHEYENNE       FAIR      71  41  33 NE23G32   30.02F
6HR MIN TEMP:  68; 6HR MAX TEMP:  73;

TORRINGTON     FAIR      79  30  16 N15G25    29.94R
6HR MIN TEMP:  61; 6HR MAX TEMP:  79;

PINE BLUFFS    FAIR      75  43  31 N25G31    29.97F

$$




USA.gov is the U.S. government's official web portal to all federal, state and local government web resources and services.